User: anonymous
Location: Mentone
(34.5413°N, 85.5351°W)
Time: 08:36:10
(UTC-05:00)
Language:

Okean O Rocket - Orbit

View from above orbital plane
View from above orbital plane
View from above satellite
View from above satellite

Ground track
Ground track

The orbit data is extracted from the following two-line orbital elements,

1 25861U 99039B   14107.90503840  .00000718  00000-0  10743-3 0  6007
2 25861 097.9433 067.7106 0015502 205.5421 217.0473 14.77652129794961
Epoch (UTC): 17 April 2014 21:43:15
Eccentricity: 0.0015502
inclination: 97.9433°
perigee height: 626 km
apogee height: 647 km
right ascension of ascending node: 67.7106°
argument of perigee: 205.5421°
revolutions per day: 14.77652129
mean anomaly at epoch: 217.0473°
orbit number at epoch: 79496

The dashed part of the orbit path shows where the satellite is in the earth's shadow,  

DLR